Location: Auckland
(36.8670°S, 174.7670°E)
Time: 03:50:24
(UTC+12:00)

Tiros 1 despin weight - Pass Details

Date: 23 July 2019
Orbit: 594 x 642 km, 48.2° (Epoch: 23 August)

Event Time Altitude Azimuth Distance (km) Brightness Sun altitude
Rises 07:38:01 0° 256° (WSW) 2,890 ? 1.2°
Reaches altitude 10° 07:41:49 10° 288° (WNW) 1,988 ? 1.8°
Maximum altitude 07:43:24 12° 309° (NW) 1,881 ? 2.1°
Drops below altitude 10° 07:44:59 10° 329° (NNW) 1,991 ? 2.4°
Sets 07:48:49 0° 1° (N) 2,899 ? 3.1°
